Current Version              Previous Version:    01  02  03  04  05  06  07  08  09  10  11  12  13  14  15  16  17  18  19  20  21  22  23  24  25  26  27  28  29  30  
   31  32  33  34  35  36  37  38  39  40  41  42  43  44  45  46  47  48  49  50  51  52  53  54  55  56  57  58  59  60  

[Printable]
088
ASUS44 KFWD 260315
RWRTX
NORTH TEXAS HOURLY WEATHER ROUNDUP
NATIONAL WEATHER SERVICE FORT WORTH TX
900 PM CST SUN JAN 25 2015

NOTE: "FAIR" INDICATES FEW OR NO CLOUDS BELOW 12,000 FEET WITH NO
SIGNIFICANT WEATHER AND/OR OBSTRUCTIONS TO VISIBILITY.

TXZ118-119-260400-
DALLAS/FORT WORTH METROPLEX

CITY           SKY/WX    TMP DP  RH WIND       PRES   REMARKS
DFW AIRPORT    CLEAR     49  25  39 NW9       30.14R
DALLAS LOVE    CLEAR     52  26  36 N3        30.14R
FTW MEACHAM    CLEAR     49  27  42 W8        30.15R
DAL-EXECUTIVE  CLEAR     49  26  41 NW7       30.13R
FTW-ALLIANCE   CLEAR     48  24  39 W7        30.15R
FTW-SPINKS     CLEAR     49  26  40 W7        30.17R
ARLINGTON      CLEAR     51  24  34 W6        30.15R
GRAND PRAIRIE  CLEAR     54  28  37 W3        30.15R
ADDISON        CLEAR     54  25  32 NW5       30.15R
MESQUITE       CLEAR     52  25  35 NW8       30.14R
LANCASTER      CLEAR     46  27  46 W5        30.15R
$$

TXZ091>094-102>105-117-120-121-131>134-260400-
NORTH CENTRAL TEXAS

CITY           SKY/WX    TMP DP  RH WIND       PRES   REMARKS
SHRMAN/DENISON CLEAR     48  32  54 N8        30.14R
GAINESVILLE    CLEAR     46  26  46 NW7       30.16R
BOWIE          CLEAR     46  25  43 W6        30.16R
BRIDGEPORT     CLEAR     46  27  46 W6        30.17R
DECATUR        CLEAR     50  22  32 NW6       30.15R
DENTON         CLEAR     44  25  47 CALM      30.14R
MCKINNEY       CLEAR     45  27  49 NW6       30.13R
GREENVILLE     CLEAR     46  28  49 NW6       30.13R
ROCKWALL       CLEAR     52  27  38 NW8       30.12R
TERRELL        CLEAR     50  28  42 NW7       30.13R
WAXAHACHIE     CLEAR     49  29  45 W6        30.15R
CLEBURNE       CLEAR     48  25  40 W5        30.17R
GRANBURY       CLEAR     50  29  44 W7        30.18R
$$

TXZ083>090-098>101-113>116-127>130-139>142-154-155-260400-
WESTERN NORTH TEXAS

CITY           SKY/WX    TMP DP  RH WIND       PRES   REMARKS
WICHITA FALLS  CLEAR     47  25  42 NW7       30.16R
WF-KICKAPOO    CLEAR    N/A N/A N/A W7        30.18R
VERNON         CLEAR     43  26  50 W9        30.19R WCI  37
ABILENE        CLEAR     45  31  58 SW7       30.23R
ABILENE-DYESS  CLEAR     47  33  57 SW10      30.23R
BRECKENRIDGE   CLEAR     49  30  48 W5        30.19R
GRAHAM         CLEAR     44  28  54 SW3       30.16R
MINERAL WELLS  CLEAR     47  27  45 W7        30.15R
STEPHENVILLE   CLEAR     49  26  42 CALM      30.20R
COMANCHE       CLEAR     53  31  43 W8        30.21R
COLEMAN        CLEAR     47  34  60 W7        30.24R
BRADY          CLEAR     45  32  61 W5        30.23R
$$

TXZ143>147-156>162-174-175-260400-
CENTRAL TEXAS

CITY           SKY/WX    TMP DP  RH WIND       PRES   REMARKS
WACO           CLEAR     43  28  55 W7        30.18R WCI  39
WACO-TSTC      CLEAR     48  27  43 N5        30.18
WACO-MCGREGOR  CLEAR     46  28  49 W8        30.19R
HILLSBORO      CLEAR     48  27  43 CALM      30.16R
CORSICANA      CLEAR     48  30  49 W10       30.14R
MEXIA          CLEAR     50  29  44 W5        30.15R
HEARNE         CLEAR     46  32  58 NW3       30.18R
CAMERON        PTCLDY    52  32  45 NW7       30.18R
TEMPLE         CLEAR     48  27  43 CALM      30.18R
KILLEEN        PTCLDY    58  27  31 NW12      30.19R
KILLEEN-SKYLRK PTCLDY    52  27  37 NW5       30.18R
FORT HOOD      PTCLDY    53  29  39 MISG      30.18R
GATESVILLE     CLEAR     48  32  53 CALM      30.21R
HAMILTON       CLEAR     49  31  49 W8        30.20R
LAMPASAS       PTCLDY    55  30  37 NW8       30.19R
$$

TXZ095>097-106>112-122>126-135>138-148>153-164>167-260400-
EAST TEXAS

CITY           SKY/WX    TMP DP  RH WIND       PRES   REMARKS
PARIS          CLEAR     46  28  49 NW6       30.11R
SULPHUR SPRNGS FAIR      48  33  55 NW7       30.13R
MOUNT PLEASANT CLEAR     50  29  45 NW7       30.10R
GILMER         CLEAR     51  27  40 W5        30.08R
MINEOLA        CLEAR     52  23  32 NW5       30.11R
TYLER          CLEAR     51  27  39 NW7       30.10R
LONGVIEW       CLEAR     51  27  39 NW8       30.07R
MARSHALL       CLEAR     54  29  37 NW6       30.08R
ATHENS         CLEAR     50  28  43 NW3       30.12R
PALESTINE      CLEAR     51  30  44 W3        30.14R
HENDERSON      CLEAR     46  30  54 W3        30.10R
NACOGDOCHES    CLEAR     54  27  35 NW10      30.10R
LUFKIN         CLEAR     55  27  34 W7        30.11R
$$

SUPPLEMENTAL OBSERVATIONS (CENTRAL)

CITY           SKY/WX    TMP DP  RH WIND       PRES   REMARKS
LAKE TEXOMA      N/A     52  32  46 N9          N/A
CADDO GRASSLND   N/A     50  28  43 N6          N/A
PAT MAYSE LAKE   N/A     46  32  57 NW3         N/A
GREENVILLE       N/A     48  28  46 NW6         N/A
CEDAR HILL       N/A     45  27  49 SW1         N/A
ATHENS           N/A     50  28  43 NW2         N/A
PALESTINE        N/A     52  28  40 W2          N/A
LAKE LIMESTONE   N/A     52  27  37 W3          N/A
MCGREGOR         N/A     52  30  43 W2          N/A
TEMPLE           N/A     54  28  37 NW1         N/A
$$

SUPPLEMENTAL OBSERVATIONS (WEST)

CITY           SKY/WX    TMP DP  RH WIND       PRES   REMARKS
MILLERS CREEK    N/A     45  32  61 W5          N/A
POSSUM KINGDOM   N/A     52  27  37 W6          N/A
LBJ GRASSLAND    N/A     46  23  39 CALM        N/A
GRANBURY         N/A     48  27  43 W8          N/A
COMANCHE         N/A     52  28  40 W10         N/A
HAMBY            N/A     41  32  70 S2          N/A
IVIE RESERVOIR   N/A     48  34  57 W1          N/A
COLORADO BEND    N/A     52  30  43 W3          N/A
$$

SUPPLEMENTAL OBSERVATIONS (EAST)

CITY           SKY/WX    TMP DP  RH WIND       PRES   REMARKS
CLARKSVILLE      N/A     46  30  53 NW7         N/A
GILMER           N/A     52  27  37 NW6         N/A
HENDERSON        N/A     50  28  43 W5          N/A
LUFKIN           N/A     54  27  35 MISG        N/A
N SABINE NF      N/A     54  28  37 MISG        N/A
S SABINE NF      N/A     54  28  37 SW2         N/A
$$

SUPPLEMENTAL OBSERVATIONS ARE A COLLECTION OF AUTOMATED INSTRUMENTS
THAT ARE MAINTAINED BY A VARIETY OF FEDERAL AND STATE AGENCIES.
CERTAIN ELEMENTS...SUCH AS HUMIDITY VALUES AND SUSTAINED WIND
SPEEDS...MAY BE APPROXIMATED.